TheGetRank SiteMap Page 5259
Home 5209 5210 5211 5212 5213 5214 5215 5216 5217 5218 5219 5220 5221 5222 5223 5224 5225 5226 5227 5228 5229 5230 5231 5232 5233 5234 5235 5236 5237 5238 5239 5240 5241 5242 5243 5244 5245 5246 5247 5248 5249 5250 5251 5252 5253 5254 5255 5256 5257 5258 5259 5260 5261 5262 5263 5264 5265 5266 5267 5268 5269 5270 5271 5272 5273 5274 5275 5276 5277 5278 5279 5280 5281 5282 5283 5284 5285 5286 5287 5288 5289 5290 5291 5292 5293 5294 5295 5296 5297 5298 5299 5300 5301 5302 5303 5304 5305 5306 5307 5308 5309
S.NO. Website Pagerank Alexa Rank Last Updated
5258000 fashion-pro.ru 0 No Rank 2012-05-07 07:40:33
5258001 fastejaculation.info 0 No Rank 2012-05-07 07:40:39
5258002 fastlooseweight.org 0 No Rank 2012-05-07 07:40:43
5258003 fastshoe.info 0 No Rank 2012-05-07 07:40:51
5258004 free-runescape-membership.net 0 15033388 2012-05-07 07:41:08
5258005 flooringchevychase.info 0 No Rank 2012-05-07 07:41:11
5258006 flops.ru 0 No Rank 2012-05-07 07:41:19
5258007 fastrecipes.org.ua 0 No Rank 2012-05-07 07:41:28
5258008 flora.be 0 No Rank 2012-05-07 07:41:49
5258009 free-tv-radio.ru 0 3702368 2012-05-07 07:42:02
5258010 floral-art.soluna.be 0 No Rank 2012-05-07 07:42:15
5258011 floral.cl 0 No Rank 2012-05-07 07:42:19
5258012 free.bshams.ir 0 2633795 2012-05-07 07:42:24
5258013 floraprovance.ru 0 7117952 2012-05-07 07:42:40
5258014 florell.com.ua 0 No Rank 2012-05-07 07:43:02
5258015 florevent.cl 0 No Rank 2012-05-07 07:43:06
5258016 floridabeachcondo.info 0 No Rank 2012-05-07 07:43:07
5258017 free4psp.ru 0 14218058 2012-05-07 07:43:07
5258018 freeagentgoflexhome2tb.info 0 No Rank 2012-05-07 07:43:08
5258019 floridawills.org 0 21360090 2012-05-07 07:43:09
5258020 flowercommunication.it 0 10839087 2012-05-07 07:43:20
5258021 freeba.org 0 No Rank 2012-05-07 07:43:21
5258022 flowerssydney.org 0 No Rank 2012-05-07 07:43:23
5258023 flyaways.org 0 No Rank 2012-05-07 07:43:30
5258024 freecat.ru 0 No Rank 2012-05-07 07:43:30
5258025 flytechno.ru 0 No Rank 2012-05-07 07:43:34
5258026 freedom-won.net 0 845875 2012-05-07 07:43:34
5258027 fm101.info 0 No Rank 2012-05-07 07:43:36
5258028 freedownloadprograms.info 0 No Rank 2012-05-07 07:43:43
5258029 fmdj.ru 0 No Rank 2012-05-07 07:43:44
5258030 freeenergyforhome.net 0 6134676 2012-05-07 07:43:48
5258031 freefromfilters.info 0 No Rank 2012-05-07 07:43:54
5258032 freeftpspace.org 0 352589 2012-05-07 07:43:59
5258033 fmo.enu.kz 0 339506 2012-05-07 07:43:59
5258034 flossing.org 0 6930612 2012-05-07 07:44:02
5258035 foambeton.net 0 No Rank 2012-05-07 07:44:06
5258036 freegle.org 0 20955425 2012-05-07 07:44:08
5258037 fobb.hr 0 No Rank 2012-05-07 07:44:11
5258038 focico.selexionclix.be 0 5202591 2012-05-07 07:44:16
5258039 freeiphone5jailbreak.net 0 No Rank 2012-05-07 07:44:16
5258040 focusbh.net 0 22365242 2012-05-07 07:44:23
5258041 foden.ru 0 No Rank 2012-05-07 07:44:26
5258042 freeliz.ru 0 8999752 2012-05-07 07:44:29
5258043 freemp3songsdownload.org 0 No Rank 2012-05-07 07:44:46
5258044 fnc.vn 0 21942320 2012-05-07 07:44:49
5258045 freenaskb.info 0 4272797 2012-05-07 07:44:52
5258046 foka.com.tr 0 26124801 2012-05-07 07:44:53
5258047 foffice.farvater.com.ua 0 No Rank 2012-05-07 07:45:04
5258048 foksun.ru 0 9419402 2012-05-07 07:45:06
5258049 folif.org 0 No Rank 2012-05-07 07:45:09
5258050 freemarriage.in 0 4869465 2012-05-07 07:45:14
5258051 fokin.tk 0 No Rank 2012-05-07 07:45:16
5258052 freepublish.net 0 22112853 2012-05-07 07:45:19
5258053 fomentoculturalbanamex.org 0 2917631 2012-05-07 07:45:19
5258054 freepastweatherdata.net 0 No Rank 2012-05-07 07:45:20
5258055 fond.troillet.ch 0 No Rank 2012-05-07 07:45:23
5258056 freestaff.net 0 No Rank 2012-05-07 07:45:25
5258057 fogelforspellets.se 0 11911002 2012-05-07 07:45:26
5258058 foodandcoffee.net 0 No Rank 2012-05-07 07:45:27
5258059 fonometrica.info 0 No Rank 2012-05-07 07:45:27
5258060 freevideo.freeuse.in 0 No Rank 2012-05-07 07:45:31
5258061 foodbrandformula.ru 0 No Rank 2012-05-07 07:45:31
5258062 freetvforpc.net 0 No Rank 2012-05-07 07:45:31
5258063 freetime-cafe.ru 0 1597619 2012-05-07 07:45:33
5258064 foodlandneva.ru 0 14051952 2012-05-07 07:45:33
5258065 foilnet.co.za 0 No Rank 2012-05-07 07:45:37
5258066 frenchsfoodservice.ca 0 No Rank 2012-05-07 07:45:40
5258067 football-ukraine.info 0 No Rank 2012-05-07 07:45:42
5258068 frenzylove.net 0 5482860 2012-05-07 07:45:43
5258069 frenchtoast.sg 0 5124090 2012-05-07 07:45:45
5258070 foresight-foundation.org 0 No Rank 2012-05-07 07:45:46
5258071 forestgrass.ru 0 No Rank 2012-05-07 07:45:50
5258072 freshaktiv.eu 0 11678711 2012-05-07 07:45:50
5258073 freshcarnews.org 0 No Rank 2012-05-07 07:45:51
5258074 forex-bis.ru 0 No Rank 2012-05-07 07:45:53
5258075 freshpool.com.ua 0 No Rank 2012-05-07 07:45:56
5258076 freewpthemes.org.ua 0 8221692 2012-05-07 07:45:57
5258077 freshportal.ru 0 No Rank 2012-05-07 07:45:57
5258078 freyr.jp 0 No Rank 2012-05-07 07:45:58
5258079 fri-rettshjelp.no 0 5345472 2012-05-07 07:45:59
5258080 forexonline.co.nz 0 3645970 2012-05-07 07:46:02
5258081 forexuniver.ru 0 9748561 2012-05-07 07:46:06
5258082 forexwithyou.ru 0 26631215 2012-05-07 07:46:07
5258083 forfeiture.info 0 11795556 2012-05-07 07:46:12
5258084 fondazionesifi.org 0 No Rank 2012-05-07 07:46:12
5258085 friedenskraftwerk.at 0 No Rank 2012-05-07 07:46:17
5258086 freewoodworking.info 0 25627330 2012-05-07 07:46:21
5258087 forlife.com.ua 0 2497126 2012-05-07 07:46:22
5258088 forloans.net 0 No Rank 2012-05-07 07:46:23
5258089 frizbee.ru 0 No Rank 2012-05-07 07:46:27
5258090 formation-chro.raccourci.fr 0 518484 2012-05-07 07:46:29
5258091 fornisenzacannafumaria.it 0 No Rank 2012-05-07 07:46:29
5258092 freschdesign.de 0 No Rank 2012-05-07 07:46:30
5258093 froes.be 0 No Rank 2012-05-07 07:46:32
5258094 forrajeriajardin.com.ar 0 No Rank 2012-05-07 07:46:32
5258095 frontiervision.org 0 No Rank 2012-05-07 07:46:35
5258096 forsol.ru 0 No Rank 2012-05-07 07:46:36
5258097 frough.ru 0 No Rank 2012-05-07 07:46:38
5258098 forsuner.ru 0 No Rank 2012-05-07 07:46:38
5258099 frozenfruitsmoothie.net 0 23569654 2012-05-07 07:46:40
5258100 fortcollinslandscaping.org 0 No Rank 2012-05-07 07:46:43
5258101 fructusvitae.eu 0 No Rank 2012-05-07 07:46:46
5258102 fruitshop.gr 0 6818412 2012-05-07 07:46:49
5258103 forextradertips.org 0 21753941 2012-05-07 07:46:49
5258104 fridleyhistory.org 0 No Rank 2012-05-07 07:46:51
5258105 fryzjer-info.pl 0 No Rank 2012-05-07 07:46:59
5258106 frydenlund-strommen.net 0 No Rank 2012-05-07 07:47:01
5258107 forum.expressinformatique.fr 0 13093628 2012-05-07 07:47:08
5258108 forodevendedores.org 0 No Rank 2012-05-07 07:47:14
5258109 fsl.com.tr 0 No Rank 2012-05-07 07:47:16
5258110 frontcounterbc-assistant.gov.bc.ca 0 10253 2012-05-07 07:47:18
5258111 fsucpe.org 0 No Rank 2012-05-07 07:47:22
5258112 forum.nissanklub.pl 0 138553 2012-05-07 07:47:24
5258113 ftwscapepk.forumotion.ca 0 319636 2012-05-07 07:47:27
5258114 forum.showyoursound.nl 0 1137542 2012-05-07 07:47:27
5258115 forum.zed.ro 0 9270875 2012-05-07 07:47:29
5258116 ftrlsh.org 0 No Rank 2012-05-07 07:47:31
5258117 fuad-iraq.org 0 No Rank 2012-05-07 07:47:31
5258118 fortlauderdalewindowtint.org 0 No Rank 2012-05-07 07:47:31
5258119 fortress-mc.ru 0 No Rank 2012-05-07 07:47:33
5258120 forumclub.be 0 2090226 2012-05-07 07:47:35
5258121 forumhit.net 0 24278133 2012-05-07 07:47:37
5258122 forumla2real.net 0 8865504 2012-05-07 07:47:38
5258123 forumimpfschutz.at 0 No Rank 2012-05-07 07:47:39
5258124 fuehrungstraining-workforchange.de 0 No Rank 2012-05-07 07:47:41
5258125 forumok.kiev.ua 0 973586 2012-05-07 07:47:41
5258126 fscorporation.jp 0 No Rank 2012-05-07 07:47:49
5258127 fuguyoshi.jp 0 No Rank 2012-05-07 07:47:49
5258128 fuhucorp.vn 0 27901579 2012-05-07 07:47:49
5258129 fuglfonix.no 0 10368849 2012-05-07 07:47:52
5258130 fullart.am 0 No Rank 2012-05-07 07:47:52
5258131 fumcsealy.org 0 No Rank 2012-05-07 07:47:53
5258132 fumagalliauto.it 0 No Rank 2012-05-07 07:47:55
5258133 functionalism.lv 0 No Rank 2012-05-07 07:47:56
5258134 fundacionlopezibor.es 0 7113108 2012-05-07 07:47:57
5258135 fundacionpanita.org 0 No Rank 2012-05-07 07:47:58
5258136 fundacjadeyna.pl 0 4614494 2012-05-07 07:47:59
5258137 fundamericalatina.org 0 No Rank 2012-05-07 07:48:00
5258138 fundraisingkongress.at 0 19632135 2012-05-07 07:48:02
5258139 forum.listafacultati.ro 0 2642542 2012-05-07 07:48:04
5258140 funholiday.org 0 3614821 2012-05-07 07:48:05
5258141 funline.wall.fm 0 No Rank 2012-05-07 07:48:05
5258142 funphoto.it 0 No Rank 2012-05-07 07:48:09
5258143 furniturecreationsondeal.tk 0 No Rank 2012-05-07 07:48:11
5258144 fusionballoon.in 0 21088460 2012-05-07 07:48:14
5258145 furusato-kakashi.net 0 No Rank 2012-05-07 07:48:14
5258146 furtale.ru 0 No Rank 2012-05-07 07:48:17
5258147 fucobi.org 0 No Rank 2012-05-07 07:48:20
5258148 forums.f.aiuritul.ro 0 4058211 2012-05-07 07:48:21
5258149 futfue.net 0 No Rank 2012-05-07 07:48:21
5258150 forumas.sportmaniac.lt 0 27264525 2012-05-07 07:48:23
5258151 futurealism.org 0 No Rank 2012-05-07 07:48:25
5258152 future.mscl.hu 0 21848577 2012-05-07 07:48:25
5258153 futurefuelnow.net 0 No Rank 2012-05-07 07:48:27
5258154 funnymoviespace.net 0 No Rank 2012-05-07 07:48:28
5258155 futureland.cn 0 9262758 2012-05-07 07:48:31
5258156 futurelineinstal.ro 0 No Rank 2012-05-07 07:48:32
5258157 futureproofbody.info 0 No Rank 2012-05-07 07:48:33
5258158 futuretraining.ie 0 No Rank 2012-05-07 07:48:34
5258159 fuyo-haruna.net 0 No Rank 2012-05-07 07:48:38
5258160 fundacionbertabauer.org.ar 0 No Rank 2012-05-07 07:48:40
5258161 fws.ir 0 9205305 2012-05-07 07:48:41
5258162 fundacionvidaporamoraellos.org.co 0 No Rank 2012-05-07 07:48:43
5258163 fuzhengtang168.net 0 No Rank 2012-05-07 07:48:45
5258164 fz-sinj.org 0 No Rank 2012-05-07 07:48:47
5258165 funeralssite.info 0 No Rank 2012-05-07 07:48:48
5258166 fjdkfjladsjf.wordpress.com 0 No Rank 2012-05-07 07:48:56
5258167 futbolki34.ru 0 No Rank 2012-05-07 07:49:03
5258168 furniturestoresindelaware.org 0 No Rank 2012-05-07 07:49:09
5258169 futuregreenenergy.info 0 No Rank 2012-05-07 07:49:18
5258170 fjfsean.wordpress.com 0 No Rank 2012-05-07 07:49:24
5258171 fjordclark.wordpress.com 0 No Rank 2012-05-07 07:49:51
5258172 fjordinc.com 0 21651979 2012-05-07 07:50:08
5258173 fjoring.com 0 No Rank 2012-05-07 07:50:40
5258174 fkdub.wordpress.com 0 No Rank 2012-05-07 07:50:50
5258175 fjordman.wordpress.com 0 3567303 2012-05-07 07:51:06
5258176 flabbergesture.wordpress.com 0 No Rank 2012-05-07 07:51:23
5258177 flabbytofit.wordpress.com 0 20510119 2012-05-07 07:51:38
5258178 fladdor.se 0 8036989 2012-05-07 07:52:52
5258179 flairbartendingfjy.wordpress.com 0 No Rank 2012-05-07 07:53:46
5258180 flagstaffatvclub.com 0 No Rank 2012-05-07 07:54:02
5258181 flame.flame.myzen.co.uk 0 72667 2012-05-07 07:54:41
5258182 flamencotulsa.com 0 No Rank 2012-05-07 07:55:44
5258183 flamewealth25.wordpress.com 0 No Rank 2012-05-07 07:55:51
5258184 flaminglotus.wordpress.com 0 No Rank 2012-05-07 07:56:03
5258185 flamingosflight.wordpress.com 0 12777120 2012-05-07 07:57:00
5258186 flannigeng.wordpress.com 0 No Rank 2012-05-07 07:57:03
5258187 flapjackcharlie.wordpress.com 0 No Rank 2012-05-07 07:57:15
5258188 flamingthespark.wordpress.com 0 No Rank 2012-05-07 07:57:19
5258189 flapjackjones.wordpress.com 0 No Rank 2012-05-07 07:57:27
5258190 forum.randkowi.pl 0 4532317 2012-05-07 07:57:33
5258191 flanderosastudios.wordpress.com 0 24552666 2012-05-07 07:57:38
5258192 flaremag.de 0 2766872 2012-05-07 07:58:07
5258193 flash.herodote.net 0 181023 2012-05-07 07:58:44
5258194 flashbulbsburst.wordpress.com 0 No Rank 2012-05-07 07:58:55
5258195 flashcartoonlibrary.wordpress.com 0 9336813 2012-05-07 07:59:05
5258196 flashdrivelinuxlive.com 0 1813202 2012-05-07 07:59:16
5258197 flashedthought.wordpress.com 0 No Rank 2012-05-07 07:59:29
5258198 flashfist22.wordpress.com 0 No Rank 2012-05-07 07:59:55
5258199 flashgames24x7.com 0 No Rank 2012-05-07 08:00:18
5258200 flash-games-site.com 0 11766037 2012-05-07 08:00:35
5258201 faqgame.ru 0 8390193 2012-05-07 08:00:48
5258202 flanec-gost.ru 0 No Rank 2012-05-07 08:00:49
5258203 fisherman-fishing.ru 0 17802363 2012-05-07 08:00:49
5258204 fliegende-kiste.de 0 No Rank 2012-05-07 08:00:50
5258205 funsport-luebeck.de 0 No Rank 2012-05-07 08:00:54
5258206 flashlight-led-flashlights-wholesale.echeapflashlight.info 0 No Rank 2012-05-07 08:00:58
5258207 flashlightman.wordpress.com 0 No Rank 2012-05-07 08:01:01
5258208 flash-of-genius.com 0 24482572 2012-05-07 08:01:38
5258209 fanonmegaphone.com 0 No Rank 2012-05-07 08:02:34
5258210 flashwithash.wordpress.com 0 No Rank 2012-05-07 08:02:51
5258211 franklin-press.com 0 5546312 2012-05-07 08:03:44
5258212 flashygamers.net 0 No Rank 2012-05-07 08:03:46
5258213 fqcz.taobao.com 0 14 2012-05-07 08:06:48
5258214 flatankleboots.net 0 9235842 2012-05-07 08:06:50
5258215 flatforrentindubai.com 0 20234806 2012-05-07 08:07:40
5258216 ferdinand-carre.de 0 No Rank 2012-05-07 08:07:47
5258217 flatironceramicchi.okayhair.in 0 8757588 2012-05-07 08:08:35
5258218 flatironceramicprofessional.okayhair.in 0 8757588 2012-05-07 08:08:58
5258219 flatscreentvstandswithmounts.cheappricesalebest.com 0 No Rank 2012-05-07 08:09:48
5258220 flatironspray.okayhair.in 0 8757588 2012-05-07 08:09:50
5258221 flattieworld.wordpress.com 0 No Rank 2012-05-07 08:10:19
5258222 fxslx.com 0 No Rank 2012-05-07 08:10:43
5258223 flattummytips.wordpress.com 0 20523707 2012-05-07 08:10:45
5258224 furniware.com 0 No Rank 2012-05-07 08:10:52
5258225 flaviomorgen.com 0 6020632 2012-05-07 08:11:24
5258226 fedebenny.it 0 No Rank 2012-05-07 08:11:36
5258227 fedevet.it 0 No Rank 2012-05-07 08:11:37
5258228 flavorofthemonthbook.wordpress.com 0 No Rank 2012-05-07 08:12:17
5258229 flavorsandseasons.wordpress.com 0 No Rank 2012-05-07 08:13:14
5258230 flaxweaving.wordpress.com 0 No Rank 2012-05-07 08:13:52
5258231 flawedlogic.wordpress.com 0 No Rank 2012-05-07 08:14:22
5258232 fldemocracy2012.com 0 3831276 2012-05-07 08:14:46
5258233 flea23.wordpress.com 0 No Rank 2012-05-07 08:14:57
5258234 fleetwindmac.wordpress.com 0 No Rank 2012-05-07 08:15:26
5258235 fleetweekthemusical.com 0 25313236 2012-05-07 08:15:27
5258236 fleecy.twpack.net 0 No Rank 2012-05-07 08:15:32
5258237 fleetingflight.wordpress.com 0 No Rank 2012-05-07 08:15:45
5258238 flensburgerfiles.areavoices.com 0 45446 2012-05-07 08:16:26
5258239 flemingsburgbaptistyouth.wordpress.com 0 No Rank 2012-05-07 08:16:51
5258240 feitian269.magix.net 0 8893 2012-05-07 08:20:33
5258241 fleshingout.wordpress.com 0 No Rank 2012-05-07 08:23:14
5258242 flermed06.wordpress.com 0 No Rank 2012-05-07 08:23:44
5258243 fleshres.wordpress.com 0 No Rank 2012-05-07 08:24:05
5258244 fleshisgrass.wordpress.com 0 8487754 2012-05-07 08:24:09
5258245 fletcherfunbunch.wordpress.com 0 No Rank 2012-05-07 08:24:41
5258246 fletchathustra.wordpress.com 0 9721156 2012-05-07 08:25:05
5258247 flexbeltreviewer.com 0 No Rank 2012-05-07 08:25:29
5258248 fletchersource.com 0 3665028 2012-05-07 08:25:41
5258249 fleurfoods.wordpress.com 0 No Rank 2012-05-07 08:25:53
5258250 flexiblecameratripod.org 0 No Rank 2012-05-07 08:26:31
5258251 flexiblepositions.org.uk 0 8187890 2012-05-07 08:26:51
5258252 flexibletension.wordpress.com 0 No Rank 2012-05-07 08:27:04
5258253 flextion.wordpress.com 0 No Rank 2012-05-07 08:28:39
5258254 fasalary.multiply.com 0 441 2012-05-07 08:35:18
5258255 flexwiz.amosl.com 0 No Rank 2012-05-07 08:35:29
5258256 fli10.wordpress.com 0 No Rank 2012-05-07 08:35:52
5258257 flightinstruction.wordpress.com 0 No Rank 2012-05-07 08:37:39
5258258 flickrtransvestitephotos.waqn.com 0 192223 2012-05-07 08:37:46
5258259 flight-of-the-conchords.edogo.com 0 29236 2012-05-07 08:38:21
5258260 flightoftheolguibee.wordpress.com 0 No Rank 2012-05-07 08:38:48
5258261 flightsimulator.onlinedomainsinternational.com 0 5209195 2012-05-07 08:40:03
5258262 flightsthailand.cheaphotelthailands.com 0 1744546 2012-05-07 08:41:43
5258263 flikk-flakk.no 0 No Rank 2012-05-07 08:41:47
5258264 fliksreview.wordpress.com 0 No Rank 2012-05-07 08:41:56
5258265 flightstohongkong.name 0 No Rank 2012-05-07 08:41:58
5258266 flipcameradeals.com 0 24482648 2012-05-07 08:42:44
5258267 flintimagesphotobooth.com 0 No Rank 2012-05-07 08:42:56
5258268 flippingchannels.wordpress.com 0 No Rank 2012-05-07 08:44:04
5258269 flipr.wordpress.com 0 No Rank 2012-05-07 08:44:34
5258270 flipthatbird.com 0 2838462 2012-05-07 08:44:51
5258271 flirtingwithcancer.wordpress.com 0 No Rank 2012-05-07 08:52:23
5258272 f-l-meile.com 0 No Rank 2012-05-07 08:53:44
5258273 flobear.wordpress.com 0 No Rank 2012-05-07 08:53:49
5258274 flngr.paradisia.net 0 2523053 2012-05-07 08:53:59
5258275 floderten.wordpress.com 0 No Rank 2012-05-07 08:54:04
5258276 floating-glass-shelves.movieyouhome.com 0 No Rank 2012-05-07 08:54:09
5258277 flogthehorse.wordpress.com 0 No Rank 2012-05-07 08:54:37
5258278 flomauri01.wordpress.com 0 No Rank 2012-05-07 08:55:06
5258279 flohocatbird.wordpress.com 0 No Rank 2012-05-07 08:55:35
5258280 floodgaterevivalministries.wordpress.com 0 No Rank 2012-05-07 08:56:25
5258281 faboulous.free.fr 0 16760708 2012-05-07 08:57:09
5258282 falconminiatures.net 0 17990498 2012-05-07 08:57:13
5258283 fathersrightsgroup.org 0 17138227 2012-05-07 08:57:20
5258284 finply.co.za 0 18431583 2012-05-07 08:57:38
5258285 forum.seabc.ca 0 15986895 2012-05-07 08:57:56
5258286 fracca.org 0 13364470 2012-05-07 08:58:05
5258287 freefullsoftware.net 0 762280 2012-05-07 08:58:10
5258288 frenchriver.ca 0 24759626 2012-05-07 08:58:11
5258289 frontier-inc.jp 0 No Rank 2012-05-07 08:58:29
5258290 floodtribunal.com 0 No Rank 2012-05-07 08:58:31
5258291 fundaciontayutic.org 0 No Rank 2012-05-07 08:58:33
5258292 floofypantsandzuccinisticks.wordpress.com 0 No Rank 2012-05-07 08:58:43
5258293 floopy21.wordpress.com 0 No Rank 2012-05-07 08:58:55
5258294 fyysika.kolhoos.ee 0 2493451 2012-05-07 08:59:26
5258295 fatskate.com 0 No Rank 2012-05-07 09:08:13
5258296 fixyourserver.com 0 No Rank 2012-05-07 09:09:05
5258297 flooringcarpetsrugs.com 0 8944154 2012-05-07 09:11:47
5258298 flooring-concepts.co.uk 0 12832973 2012-05-07 09:12:05
5258299 floorsinkgrates.bestpricecheapbuy.com 0 No Rank 2012-05-07 09:12:12
5258300 floorswedo.wordpress.com 0 No Rank 2012-05-07 09:12:25
5258301 flopearedmule.net 0 9063941 2012-05-07 09:12:36
5258302 floquet.net 0 13682335 2012-05-07 09:12:45
5258303 flora69worldwide.wordpress.com 0 No Rank 2012-05-07 09:13:21
5258304 florafilipina.wordpress.com 0 No Rank 2012-05-07 09:13:41
5258305 floralgems.wordpress.com 0 No Rank 2012-05-07 09:14:17
5258306 floramargo.com 0 No Rank 2012-05-07 09:14:46
5258307 floralduvetcovers.cheapsalebuyprice.com 0 15353511 2012-05-07 09:14:47
5258308 flora-minis.treemkt.com 0 507444 2012-05-07 09:16:27
5258309 floreinbologna.wordpress.com 0 No Rank 2012-05-07 09:16:43
5258310 florenceeggins.wordpress.com 0 No Rank 2012-05-07 09:17:00
5258311 florencenightingalecomposer.wordpress.com 0 No Rank 2012-05-07 09:17:10
5258312 florencet.wordpress.com 0 No Rank 2012-05-07 09:17:26
5258313 florida.1bl.co 0 91252 2012-05-07 09:18:11
5258314 floriankarmen.com 0 77781 2012-05-07 09:18:37
5258315 floridadiving.info 0 17438516 2012-05-07 09:19:33
5258316 floridadomicileman.wordpress.com 0 No Rank 2012-05-07 09:19:49
5258317 floridakeysgirl.com 0 3570824 2012-05-07 09:20:15
5258318 floridametfan.mlblogs.com 0 28002 2012-05-07 09:20:44
5258319 floridamommykat.wordpress.com 0 No Rank 2012-05-07 09:20:57
5258320 floridanetroots.com 0 2223370 2012-05-07 09:21:12
5258321 floridanotaryblog.com 0 23782913 2012-05-07 09:21:30
5258322 florida-oil-spill-lawsuit.com 0 No Rank 2012-05-07 09:21:40
5258323 floridasprintcarfans.com 0 11117803 2012-05-07 09:22:09
5258324 floridatreehugger.com 0 No Rank 2012-05-07 09:22:25
5258325 florida-unemploymenthotlineinc-com.unemploymenthotlineinc.com 0 1064779 2012-05-07 09:22:45
5258326 floridayachtclub.com 0 No Rank 2012-05-07 09:23:01
5258327 florindeejaykiss.wordpress.com 0 No Rank 2012-05-07 09:23:14
5258328 floris.vanenter.nl 0 4621188 2012-05-07 09:23:26
5258329 florist.freshpizzatoday.com 0 606338 2012-05-07 09:23:41
5258330 floristcharlottenc258.wordpress.com 0 No Rank 2012-05-07 09:23:53
5258331 flossysplace.wordpress.com 0 No Rank 2012-05-07 09:24:39
5258332 flossyt9.wordpress.com 0 No Rank 2012-05-07 09:24:56
5258333 flounderingfathers.wordpress.com 0 No Rank 2012-05-07 09:25:18
5258334 flourishleadership.com 0 No Rank 2012-05-07 09:25:35
5258335 flowerbloomyday.info 0 No Rank 2012-05-07 09:25:49
5258336 flowerbuyflorist.com 0 No Rank 2012-05-07 09:26:05
5258337 flowercityknits.wordpress.com 0 No Rank 2012-05-07 09:26:33
5258338 flowergardengirl.wordpress.com 0 1592918 2012-05-07 09:26:59
5258339 flowerchildcostume.net 0 No Rank 2012-05-07 09:27:03
5258340 flowergardeningtips.net 0 19984176 2012-05-07 09:28:07
5258341 flowers06.wordpress.com 0 No Rank 2012-05-07 09:28:09
5258342 flowers.spider-rich.com 0 7933895 2012-05-07 09:28:16
5258343 flowerpower001.wordpress.com 0 No Rank 2012-05-07 09:28:24
5258344 flowershowblog.org 0 18384816 2012-05-07 09:28:39
5258345 flowersobx.com 0 11260351 2012-05-07 09:28:50
5258346 flowertherapies.com 0 No Rank 2012-05-07 09:29:01
5258347 flowersa56.smakids.org 0 2302466 2012-05-07 09:29:07
5258348 flowerybranchchiropractor.com 0 No Rank 2012-05-07 09:29:16
5258349 flowmonster.wordpress.com 0 No Rank 2012-05-07 09:29:28
5258350 floydarchuleta.wordpress.com 0 No Rank 2012-05-07 09:29:55
5258351 floydn.wordpress.com 0 No Rank 2012-05-07 09:30:17
5258352 flubadub.wordpress.com 0 No Rank 2012-05-07 09:30:48
5258353 flucat.com 0 No Rank 2012-05-07 09:31:09
5258354 flu.averagedesign.com 0 14771086 2012-05-07 09:31:18
5258355 fluefiskeren.wordpress.com 0 No Rank 2012-05-07 09:31:23
5258356 fluffers8158.wordpress.com 0 No Rank 2012-05-07 09:31:35
5258357 fluffie.wordpress.com 0 No Rank 2012-05-07 09:31:49
5258358 fluffybabybunnies.wordpress.com 0 No Rank 2012-05-07 09:32:02
5258359 flugelmeister.wordpress.com 0 No Rank 2012-05-07 09:32:17
5258360 fluidblog.wordpress.com 0 26485122 2012-05-07 09:32:28
5258361 fluidpasts.wordpress.com 0 No Rank 2012-05-07 09:32:42
5258362 flukemultimetershop.info 0 No Rank 2012-05-07 09:33:18
5258363 flumasks2.wordpress.com 0 No Rank 2012-05-07 09:33:24
5258364 fluoridationqueensland.com 0 23783005 2012-05-07 09:33:43
5258365 fluty.wordpress.com 0 No Rank 2012-05-07 09:34:10
5258366 fluvaccine.org 0 No Rank 2012-05-07 09:34:24
5258367 flussomusic.com 0 12176109 2012-05-07 09:34:41
5258368 fly4change.wordpress.com 0 5308378 2012-05-07 09:34:42
5258369 flyandride.com.br 0 No Rank 2012-05-07 09:36:40
5258370 flyboywakesurf.com 0 552291 2012-05-07 09:37:19
5258371 flyboys.info 0 27641743 2012-05-07 09:37:42
5258372 flydry.wordpress.com 0 No Rank 2012-05-07 09:39:32
5258373 flybynightvideo.wordpress.com 0 No Rank 2012-05-07 09:40:01
5258374 flyfishingfortrout.org 0 20167731 2012-05-07 09:41:06
5258375 flyfishing.onlinecashstorm.com 0 No Rank 2012-05-07 09:41:07
5258376 flyfishnevada.com 0 9196484 2012-05-07 09:41:27
5258377 flyingcolors.onewavemedia.com 0 8120049 2012-05-07 09:41:40
5258378 flyfishingisafunandrejuvenatingactivity176.wordpress.com 0 No Rank 2012-05-07 09:41:55
5258379 flyingconfessions.com 0 5259490 2012-05-07 09:41:56
5258380 flyingfood.wordpress.com 0 No Rank 2012-05-07 09:42:10
5258381 flyingfox.jonathanjanson.com 0 16573641 2012-05-07 09:42:26
5258382 flyingheartrolfing.com 0 No Rank 2012-05-07 09:42:41
5258383 flyinghorsebooks.wordpress.com 0 No Rank 2012-05-07 09:42:56
5258384 flyingindian.com 0 No Rank 2012-05-07 09:43:19
5258385 flyingonfoot.wordpress.com 0 No Rank 2012-05-07 09:43:47
5258386 flyinginflorida.wordpress.com 0 No Rank 2012-05-07 09:44:12
5258387 flyingpigeon-la.com 0 1869405 2012-05-07 09:44:13
5258388 florists.incantonoh.com 0 No Rank 2012-05-07 10:00:43
5258389 filedl.info 0 10199744 2012-05-07 10:13:06
5258390 funltopia.com 0 No Rank 2012-05-07 10:17:56
5258391 foartv.wordpress.com 0 No Rank 2012-05-07 10:40:06
5258392 fobokapi.wordpress.com 0 No Rank 2012-05-07 10:40:20
5258393 focusfirst.wordpress.com 0 No Rank 2012-05-07 10:41:11
5258394 focuslaw.ca 0 No Rank 2012-05-07 10:41:39
5258395 focusbelieveachieve.com 0 1172067 2012-05-07 10:41:43
5258396 focusonfit.com 0 3592509 2012-05-07 10:41:53
5258397 focusonthelittlethings.wordpress.com 0 8225223 2012-05-07 10:42:22
5258398 focusonyouvideo.com 0 No Rank 2012-05-07 10:42:33
5258399 focustoric.wordpress.com 0 No Rank 2012-05-07 10:42:49
5258400 foedustheologus.com 0 No Rank 2012-05-07 10:43:23
5258401 fodbold2002.wordpress.com 0 No Rank 2012-05-07 10:43:56
5258402 fofalani.wordpress.com 0 No Rank 2012-05-07 10:44:02
5258403 fofotos.wordpress.com 0 No Rank 2012-05-07 10:44:22
5258404 foh.ie 0 No Rank 2012-05-07 10:45:02
5258405 fogcitybean.wordpress.com 0 No Rank 2012-05-07 10:45:18
5258406 foia.myartsonline.com 0 150907 2012-05-07 10:45:21
5258407 fokamm.stmikdb.ac.id 0 8844493 2012-05-07 10:45:34
5258408 fokked.demanufacture.org 0 22972726 2012-05-07 10:45:52
5258409 fold-away-shoes.com 0 No Rank 2012-05-07 10:46:28
5258410 foldedstars.wordpress.com 0 No Rank 2012-05-07 10:46:39
5258411 foldsy.wordpress.com 0 No Rank 2012-05-07 10:47:29
5258412 foldinggardenchairs.net 0 5126431 2012-05-07 10:47:46
5258413 foliobespoke.com 0 4451365 2012-05-07 10:48:05
5258414 foliofocus.com 0 138851 2012-05-07 10:48:19
5258415 freeecommercethemes.blog.com 0 No Rank 2012-05-07 10:48:38
5258416 folioantiquesdubai.wordpress.com 0 No Rank 2012-05-07 10:48:39
5258417 foliumconvallariae.wordpress.com 0 No Rank 2012-05-07 10:49:31
5258418 folkarchivist.wordpress.com 0 No Rank 2012-05-07 10:52:40
5258419 findife.com 0 No Rank 2012-05-07 10:53:23
5258420 folkbeauty.com 0 21300250 2012-05-07 10:53:41
5258421 followbibletoday.wordpress.com 0 No Rank 2012-05-07 10:53:52
5258422 folkcatalogue.wordpress.com 0 11643969 2012-05-07 10:53:57
5258423 followcatherine.com 0 No Rank 2012-05-07 10:54:05
5258424 folkindia.wordpress.com 0 No Rank 2012-05-07 10:54:12
5258425 followcharles.wordpress.com 0 9580675 2012-05-07 10:54:18
5258426 followingkpop.wordpress.com 0 No Rank 2012-05-07 10:54:49
5258427 followingsplendor.com 0 18413509 2012-05-07 10:55:09
5258428 futureful.com 0 9645423 2012-05-07 10:55:09
5258429 followtheboat12.wordpress.com 0 No Rank 2012-05-07 10:55:23
5258430 followinginhisfootsteps.wordpress.com 0 23567776 2012-05-07 10:55:25
5258431 followthefashion33.wordpress.com 0 28164186 2012-05-07 10:55:39
5258432 followyourblisscoach.wordpress.com 0 No Rank 2012-05-07 10:56:14
5258433 followyourstarblog.wordpress.com 0 No Rank 2012-05-07 10:56:23
5258434 foltfeszek.hu 0 7748192 2012-05-07 10:57:13
5258435 fomudailyphoto.wordpress.com 0 No Rank 2012-05-07 10:57:36
5258436 follyschizo.wordpress.com 0 No Rank 2012-05-07 10:57:38
5258437 fimec-technologies.com 0 No Rank 2012-05-07 11:01:45
5258438 fonovcizasrbiju.wordpress.com 0 No Rank 2012-05-07 11:03:29
5258439 fontstruct.com 0 89384 2012-05-07 11:04:37
5258440 fonzo86.wordpress.com 0 No Rank 2012-05-07 11:04:53
5258441 fontsgraffiti.info 0 2487619 2012-05-07 11:04:54
5258442 fooby.wordpress.com 0 No Rank 2012-05-07 11:06:22
5258443 food.articles-en.com 0 No Rank 2012-05-07 11:08:11
5258444 food.brookeandsteve.ca 0 24734293 2012-05-07 11:08:23
5258445 food.jdspc.com 0 No Rank 2012-05-07 11:09:20
5258446 food.mylix.net 0 5131014 2012-05-07 11:09:25
5258447 food.theplainjane.com 0 2570950 2012-05-07 11:09:39
5258448 food.meltingonline.com 0 No Rank 2012-05-07 11:09:49
5258449 food.velvetkerfuffle.net 0 12016378 2012-05-07 11:10:02
5258450 food.visitrenotahoe.com 0 238313 2012-05-07 11:10:33
5258451 food4thoughtspeakers.wordpress.com 0 No Rank 2012-05-07 11:10:45
5258452 food.visitphilly.com 0 82776 2012-05-07 11:10:59
5258453 foodallergiesaccordingtofifi.wordpress.com 0 No Rank 2012-05-07 11:11:56
5258454 foodandagro.wordpress.com 0 No Rank 2012-05-07 11:13:01
5258455 foodandcultureproject.wordpress.com 0 No Rank 2012-05-07 11:13:13
5258456 foodanddrinkink.wordpress.com 0 No Rank 2012-05-07 11:13:25
5258457 foodandpopulation.wordpress.com 0 No Rank 2012-05-07 11:13:38
5258458 foodandstyle.com 0 310137 2012-05-07 11:14:05
5258459 foodatmyhouse.wordpress.com 0 No Rank 2012-05-07 11:16:17
5258460 food-basics.eatinghealthyhowto.com 0 6724029 2012-05-07 11:17:14
5258461 foodcakes.com 0 20146676 2012-05-07 11:17:18
5258462 foodbog.wordpress.com 0 No Rank 2012-05-07 11:17:28
5258463 foodcapital.wordpress.com 0 No Rank 2012-05-07 11:18:56
5258464 foodcourt.wordpress.com 0 3820639 2012-05-07 11:19:57
5258465 foodcharmer.com 0 No Rank 2012-05-07 11:20:10
5258466 foodcontainersbpafree.woodequine.com 0 No Rank 2012-05-07 11:20:24
5258467 foodcrisis.foreignpolicyblogs.com 0 302343 2012-05-07 11:21:59
5258468 fabienmegel.com 0 No Rank 2012-05-07 11:26:57
5258469 fooddishorg.wordpress.com 0 No Rank 2012-05-07 11:26:59
5258470 foodendeavor.wordpress.com 0 No Rank 2012-05-07 11:27:52
5258471 food-drink.condosmiamisouthbeach.com 0 21327844 2012-05-07 11:27:59
5258472 foodertain.wordpress.com 0 25792584 2012-05-07 11:28:05
5258473 food-drink.medicalbillingandcoding101.com 0 10443801 2012-05-07 11:28:11
5258474 fooddrinktips.com 0 No Rank 2012-05-07 11:28:25
5258475 foodfanatique.wordpress.com 0 No Rank 2012-05-07 11:28:50
5258476 foodfacts.co.in 0 No Rank 2012-05-07 11:29:07
5258477 foodfitnessfashion.com 0 1567163 2012-05-07 11:29:08
5258478 foodfairie.wordpress.com 0 No Rank 2012-05-07 11:29:19
5258479 foodfitnessfreshair.wordpress.com 0 No Rank 2012-05-07 11:29:22
5258480 foodflirtation.wordpress.com 0 No Rank 2012-05-07 11:29:36
5258481 fooddiary.blogsome.com 0 4208193 2012-05-07 11:29:50
5258482 foodforlifebaking.wordpress.com 0 No Rank 2012-05-07 11:30:38
5258483 foodfornormalpeople.wordpress.com 0 No Rank 2012-05-07 11:31:31
5258484 forex1698.blogspot.com 0 No Rank 2012-05-07 11:31:35
5258485 foodforthink.com 0 2029973 2012-05-07 11:31:44
5258486 foodforyourwholelifeblog.org 0 21209840 2012-05-07 11:32:00
5258487 foodgame.wordpress.com 0 No Rank 2012-05-07 11:34:13
5258488 foodgiggles.wordpress.com 0 No Rank 2012-05-07 11:34:28
5258489 foodgrows.wordpress.com 0 No Rank 2012-05-07 11:35:05
5258490 foodhax.wordpress.com 0 No Rank 2012-05-07 11:35:38
5258491 foodhost.wordpress.com 0 No Rank 2012-05-07 11:36:03
5258492 foodguymontreal.com 0 6919702 2012-05-07 11:36:05
5258493 foodhogger.wordpress.com 0 No Rank 2012-05-07 11:36:37
5258494 foodicted.com 0 No Rank 2012-05-07 11:37:03
5258495 foodielawyer.com 0 20926099 2012-05-07 11:37:09
5258496 foodieinthecity.wordpress.com 0 No Rank 2012-05-07 11:37:15
5258497 foodieontheprowl.wordpress.com 0 No Rank 2012-05-07 11:37:23
5258498 foodieq.wordpress.com 0 28136180 2012-05-07 11:37:34
5258499 fantasty.com 0 No Rank 2012-05-07 11:44:35
5258500 foodiesacrossborders.com 0 4213711 2012-05-07 11:45:27
5258501 foodiesandalcoholenthusiasts.wordpress.com 0 No Rank 2012-05-07 11:47:09
5258502 foodietogo.wordpress.com 0 No Rank 2012-05-07 11:47:34
5258503 foodiespicnic.wordpress.com 0 26012355 2012-05-07 11:47:39
5258504 foodiesuz.wordpress.com 0 No Rank 2012-05-07 11:48:04
5258505 foodietwoshoes.com 0 12301656 2012-05-07 11:49:00
5258506 foodisme.wordpress.com 0 No Rank 2012-05-07 11:49:33
5258507 foodio.tv 0 No Rank 2012-05-07 11:50:06
5258508 foodjunkie.eu 0 1443026 2012-05-07 11:50:31
5258509 foodlawg.wordpress.com 0 No Rank 2012-05-07 11:52:37
5258510 foodliteracy101.wordpress.com 0 No Rank 2012-05-07 11:52:56
5258511 foodlyfriends.wordpress.com 0 No Rank 2012-05-07 11:54:34
5258512 foodnearsnellville.wordpress.com 0 2326132 2012-05-07 11:54:39
5258513 food-network-recipes.com 0 17705505 2012-05-07 11:55:23
5258514 foodnerd.wordpress.com 0 No Rank 2012-05-07 11:55:39
5258515 foodnetworkfan.wordpress.com 0 No Rank 2012-05-07 11:55:53
5258516 foodnetworkuk.wordpress.com 0 No Rank 2012-05-07 11:56:27
5258517 foodnotbourgeoisie.wordpress.com 0 No Rank 2012-05-07 11:56:38
5258518 foododelmundo.com 0 1118908 2012-05-07 11:56:58
5258519 foodolution.com 0 No Rank 2012-05-07 11:57:08
5258520 foodoptimizer.wordpress.com 0 No Rank 2012-05-07 11:57:27
5258521 fastloansinhour.com 0 No Rank 2012-05-07 11:57:35
5258522 foodoochild.wordpress.com 0 No Rank 2012-05-07 11:58:04
5258523 foodrandomist.wordpress.com 0 No Rank 2012-05-07 12:00:48
5258524 foodsavers.perfectdealsonsale.com 0 No Rank 2012-05-07 12:01:36
5258525 foodrehab.wordpress.com 0 No Rank 2012-05-07 12:01:41
5258526 foodsafetyexpert.wordpress.com 0 No Rank 2012-05-07 12:02:06
5258527 foodschology.wordpress.com 0 No Rank 2012-05-07 12:02:38
5258528 foodsenseatpleasantglade.wordpress.com 0 No Rank 2012-05-07 12:02:52
5258529 foodsofapril.com 0 3285822 2012-05-07 12:08:14
5258530 foodtravelandakeyboard.wordpress.com 0 No Rank 2012-05-07 12:10:03
5258531 foodthermometer.org 0 No Rank 2012-05-07 12:10:28
5258532 foodtuitive.wordpress.com 0 No Rank 2012-05-07 12:10:43
5258533 foodzayka.com 0 5652284 2012-05-07 12:11:00
5258534 foofish.org 0 No Rank 2012-05-07 12:11:11
5258535 findgooglecash.com 0 No Rank 2012-05-07 12:11:20
5258536 fooish.wordpress.com 0 No Rank 2012-05-07 12:11:25
5258537 foolfactory.com 0 No Rank 2012-05-07 12:12:43
5258538 foolishblatherings.wordpress.com 0 6815002 2012-05-07 12:12:55
5258539 furiess.blogspot.com 0 No Rank 2012-05-07 12:13:04
5258540 funny.hunsa.com 0 20090 2012-05-07 12:13:06
5258541 foot.allmania.com 0 752672 2012-05-07 12:13:40
5258542 foolsage.wordpress.com 0 No Rank 2012-05-07 12:13:53
5258543 foot-africain.com 0 3517017 2012-05-07 12:16:19
5258544 football.ismonacoblog.org 0 No Rank 2012-05-07 12:28:30
5258545 football.hawkmania.com 0 12130567 2012-05-07 12:29:00
5258546 forum.indizeit.com 0 No Rank 2012-05-07 12:29:54
5258547 footballfeverpodcast.com 0 7428693 2012-05-07 12:30:34
5258548 footballkerala.com 0 2578896 2012-05-07 12:30:48
5258549 footballmmorpg.wordpress.com 0 No Rank 2012-05-07 12:31:36
5258550 footballsandfreedoms.wordpress.com 0 No Rank 2012-05-07 12:32:08
5258551 footballticketsforless.com 0 No Rank 2012-05-07 12:32:31
5258552 footballplayerscout.wordpress.com 0 No Rank 2012-05-07 12:32:44
5258553 footfetishscene.com 0 No Rank 2012-05-07 12:33:02
5258554 footgamingbj.wordpress.com 0 No Rank 2012-05-07 12:33:54
5258555 freeukpressrelease.co.uk 0 336850 2012-05-07 12:39:08
5258556 forums.galvestoninternet.com 0 No Rank 2012-05-07 12:42:19
5258557 farzad2baby.blogfa.com 0 16416129 2012-05-07 12:45:35
5258558 freewordpressthemessite.blog.com 0 26665261 2012-05-07 12:53:21
5258559 forbearsfreedom.net 0 No Rank 2012-05-07 12:54:09
5258560 filmubaze.eu 0 No Rank 2012-05-07 12:54:58
5258561 forums.uggbootoutlets.com 0 No Rank 2012-05-07 12:57:07
5258562 forbiddenvideo.wordpress.com 0 No Rank 2012-05-07 12:59:21
5258563 fwbteaparty.com 0 4428045 2012-05-07 12:59:50
5258564 favore.biz 0 19363397 2012-05-07 13:15:01
5258565 forestglenroad.org 0 13809633 2012-05-07 13:19:30
5258566 forestcitychiropractor.wellagainnetwork.com 0 8976699 2012-05-07 13:19:56
5258567 forum.zeload.com 0 615324 2012-05-07 13:19:56
5258568 forestrowfilmsociety.org 0 No Rank 2012-05-07 13:20:01
5258569 forestmist.org 0 2153164 2012-05-07 13:20:29
5258570 foretagsbiblioteket.se 0 No Rank 2012-05-07 13:20:33
5258571 forestsandclimate.wordpress.com 0 No Rank 2012-05-07 13:20:57
5258572 forever73.wordpress.com 0 No Rank 2012-05-07 13:25:35
5258573 festiwal-pierwszy-kontakt.blogspot.com.br 0 No Rank 2012-05-07 13:56:50
5258574 fjwo.cn 0 No Rank 2012-05-07 14:00:50
5258575 firearmfun.blogspot.com 0 3304160 2012-05-07 14:07:50
5258576 football-waldenburg.blogspot.com 0 No Rank 2012-05-07 14:19:07
5258577 fjzhongyi.com 0 No Rank 2012-05-07 14:35:58
5258578 forex.karaoke-ku.blogspot.com 0 533658 2012-05-07 15:04:07
5258579 findnet.co.uk 0 No Rank 2012-05-07 15:07:05
5258580 find-medical-cannabis63.onsugar.com 0 No Rank 2012-05-07 15:14:47
5258581 findwithus.com 0 9318326 2012-05-07 15:16:59
5258582 footballcracy.com 0 1407702 2012-05-07 15:24:32
5258583 foleyfoodmill.com 0 No Rank 2012-05-07 15:26:25
5258584 forumturka.org 0 26642212 2012-05-07 15:28:33
5258585 fashionfield.nu 0 5952036 2012-05-07 15:47:18
5258586 fazer-arranjos-florais.blogspot.com 0 No Rank 2012-05-07 15:53:48
5258587 forex.secretwebincome.com 0 11667093 2012-05-07 16:01:09
5258588 forextradingsystemx.com 0 1931725 2012-05-07 16:20:06
5258589 freighthardware.com 0 16282724 2012-05-07 16:38:05
5258590 file-dst.freevar.com 0 71146 2012-05-07 16:51:38
5258591 ftlbookfellows.com 0 21556913 2012-05-07 17:02:33
5258592 forum.forumactif.com 0 2616 2012-05-07 17:19:11
5258593 fpwminc.com 0 4311996 2012-05-07 17:27:16
5258594 frank-krah.de 0 No Rank 2012-05-07 17:36:34
5258595 first4it.co.uk 0 2559569 2012-05-07 17:42:02
5258596 forumassist.in 0 6508276 2012-05-07 17:42:03
5258597 frank-gmbh.com 0 No Rank 2012-05-07 17:45:15
5258598 fulltimefit.com 0 22981621 2012-05-07 17:47:54
5258599 fxtoro.notlong.com 0 195480 2012-05-07 17:57:15
5258600 forextoro.ubb.cc 0 2001133 2012-05-07 17:57:39
5258601 forextoro.da.bz 0 1306215 2012-05-07 17:58:17
5258602 fileshouse.com 0 555770 2012-05-07 18:01:19
5258603 forum.volgor.ru 0 No Rank 2012-05-07 18:01:21
5258604 foto.otdel13.com 0 No Rank 2012-05-07 18:01:33
5258605 forex.uggbootoutlets.com 0 No Rank 2012-05-07 18:11:12
5258606 forex.galvestoninternet.com 0 No Rank 2012-05-07 18:11:18
5258607 fshuay.com 0 9794529 2012-05-07 18:18:48
5258608 flex4java.blogspot.com 0 No Rank 2012-05-07 18:29:03
5258609 forumm.mydigitalebookreader.com 0 No Rank 2012-05-07 18:39:36
5258610 faithas5ive.b1.jcink.com 0 59252 2012-05-07 18:45:40
5258611 forums.threecountwrestling.com 0 15586047 2012-05-07 18:46:20
5258612 free-visa-card.com 0 No Rank 2012-05-07 19:05:58
5258613 free-master-card.com 0 No Rank 2012-05-07 19:08:59
5258614 footpatch2012.blogspot.com 0 No Rank 2012-05-07 19:20:31
5258615 fitness-works.info 0 No Rank 2012-05-07 19:27:30
5258616 fourexchange.atspace.tv 0 295196 2012-05-07 19:28:29
5258617 fitpiano.atspace.eu 0 No Rank 2012-05-07 19:31:32
5258618 featurecolonel.atspace.cc 0 380274 2012-05-07 19:40:29
5258619 fcb24hpl.blogspot.com 0 21920626 2012-05-07 19:42:04
5258620 fakelion.atspace.cc 0 380274 2012-05-07 19:42:56
5258621 fixa.sportsontheweb.net 0 508383 2012-05-07 19:46:33
5258622 frownregular.atwebpages.com 0 No Rank 2012-05-07 19:48:11
5258623 fastbed.getenjoyment.net 0 323029 2012-05-07 19:49:08
5258624 fundraiserhowto.org 0 No Rank 2012-05-07 19:55:42
5258625 fundraiserideahub.org 0 No Rank 2012-05-07 19:56:26
5258626 fundraisersa.org 0 No Rank 2012-05-07 19:56:27
5258627 focusremain.getenjoyment.net 0 323029 2012-05-07 20:01:00
5258628 freemanbarto924.over-blog.com 0 No Rank 2012-05-07 20:04:43
5258629 forex-advices.tk 0 No Rank 2012-05-07 20:05:19
5258630 fieldherself.getenjoyment.net 0 323029 2012-05-07 20:06:28
5258631 fortunefig.mypressonline.com 0 286390 2012-05-07 20:06:31
5258632 forcate.net 0 No Rank 2012-05-07 20:07:08
5258633 floodbook.binhoster.com 0 133596 2012-05-07 20:07:32
5258634 freemanbarto924.insanejournal.com 0 3938 2012-05-07 20:08:31
5258635 freemanbarto9248715.blog.hr 0 13035 2012-05-07 20:09:30
5258636 fairfine.16mb.com 0 No Rank 2012-05-07 20:11:26
5258637 fellmajor.16mb.com 0 No Rank 2012-05-07 20:14:04
5258638 footballpalm.onlinewebshop.net 0 No Rank 2012-05-07 20:18:32
5258639 familyhouse.com.hk 0 No Rank 2012-05-07 20:23:46
5258640 failgoddamn.onlinewebshop.net 0 No Rank 2012-05-07 20:25:40
5258641 fruer.pl 0 No Rank 2012-05-07 20:25:58
5258642 forextradingreview4u.com 0 No Rank 2012-05-07 20:29:18
5258643 fotooglasi.net 0 13531402 2012-05-07 20:44:06
5258644 forums.forex-advices.tk 0 No Rank 2012-05-07 20:50:22
5258645 fighterslightly.scienceontheweb.net 0 227195 2012-05-07 20:53:32
5258646 frightenpull.getenjoyment.net 0 323029 2012-05-07 20:53:44
5258647 frydeliver.binhoster.com 0 133596 2012-05-07 20:54:03
5258648 foodcertainly.606h.net 0 575410 2012-05-07 20:54:54
5258649 fiftyhistory.606h.net 0 575410 2012-05-07 20:55:03
5258650 factsister.binhoster.com 0 133596 2012-05-07 20:55:07
5258651 forksopendoors.com 0 No Rank 2012-05-07 20:55:54
5258652 fabricgiftbags.net 0 No Rank 2012-05-07 20:56:40
5258653 frisoni-heller.com 0 21920823 2012-05-07 20:57:33
5258654 fabricartforms.com 0 No Rank 2012-05-07 20:57:57
5258655 faroverhead.606h.net 0 575410 2012-05-07 20:59:25
5258656 fifteenamuse.606h.net 0 575410 2012-05-07 21:00:30
5258657 forum.gnupanel.org 0 318651 2012-05-07 21:01:53
5258658 forums.blur.co.uk 0 255818 2012-05-07 21:02:44
5258659 fleshmeet.binhoster.com 0 133596 2012-05-07 21:02:59
5258660 foodpossib.606h.net 0 575410 2012-05-07 21:03:03
5258661 fearlesssewing.com 0 No Rank 2012-05-07 21:04:05
5258662 finland.yougov.com 0 20892 2012-05-07 21:04:29
5258663 furniturecatch.com 0 No Rank 2012-05-07 21:04:46
5258664 fishmansdelivery.ca 0 No Rank 2012-05-07 21:05:07
5258665 fitnessandwealth.net 0 No Rank 2012-05-07 21:05:08
5258666 fisher.in.ua 0 17098453 2012-05-07 21:05:08
5258667 fix-it.be 0 No Rank 2012-05-07 21:05:09
5258668 formbody.wellness-vary.cz 0 17067943 2012-05-07 21:05:26
5258669 formula1.org.pl 0 No Rank 2012-05-07 21:05:27
5258670 frontier.ms 0 20515464 2012-05-07 21:05:53
5258671 fivecountycreditunion.net 0 5618286 2012-05-07 21:05:56
5258672 floridaschoicehospice.net 0 No Rank 2012-05-07 21:05:59
5258673 flyzed.info 0 2416035 2012-05-07 21:06:01
5258674 fultpoker.ru 0 No Rank 2012-05-07 21:06:05
5258675 fujairahpolice.gov.ae 0 9059868 2012-05-07 21:06:08
5258676 futbolas.biz 0 No Rank 2012-05-07 21:06:13
5258677 futureindiagroup.in 0 15538834 2012-05-07 21:06:13
5258678 forumzenit.ru 0 No Rank 2012-05-07 21:06:18
5258679 fra.org.in 0 No Rank 2012-05-07 21:06:20
5258680 frenchcentreenugu.org 0 4830281 2012-05-07 21:06:33
5258681 falconrealestate.in 0 16819522 2012-05-07 21:09:37
5258682 feminamobile.lt 0 No Rank 2012-05-07 21:10:05
5258683 financialplannercareer.co 0 13732924 2012-05-07 21:10:19
5258684 fireupthatkindle.com 0 2177592 2012-05-07 21:12:48
5258685 forex.forextradingsystemx.com 0 1931725 2012-05-07 21:27:23
5258686 freesoccerlivehdtv.blogspot.com 0 No Rank 2012-05-07 21:27:27
5258687 financialmarketleaders.com 0 13204516 2012-05-07 21:29:25
5258688 fisderst.site88.net 0 No Rank 2012-05-07 21:30:55
5258689 fdg4df54g5d.oggix.org 0 43244 2012-05-07 21:48:10
5258690 fbperuanos.byethost13.com 0 140881 2012-05-07 21:51:17
5258691 futurakitpilotoautomatico.vai.la 0 165066 2012-05-07 21:52:54
5258692 flatlandfarm.com 0 No Rank 2012-05-07 21:57:37
5258693 footzone.football.fr 0 21663 2012-05-07 21:58:48
5258694 friendsafe.com.au 0 5148471 2012-05-07 22:01:20
5258695 forums.loscomplementosdemaria.com 0 5569730 2012-05-07 22:07:05
5258696 forums.munnahome.com 0 No Rank 2012-05-07 22:07:18
5258697 forums.animeuknews.net 0 1031263 2012-05-07 22:10:52
5258698 fabiennebigler.magix.net 0 8834 2012-05-07 22:20:17
5258699 fineclassicmovies.us 0 No Rank 2012-05-07 22:25:20
5258700 findholidayhotels.com 0 No Rank 2012-05-07 22:27:54
5258701 facebooki.eu 0 No Rank 2012-05-07 22:28:51
5258702 fortishfg.multiply.com 0 441 2012-05-07 22:39:08
5258703 fisherpricebabyswing.com 0 No Rank 2012-05-07 22:56:26
5258704 f-sekisui-hs.jp 0 No Rank 2012-05-07 22:58:46
5258705 f11192.cn 0 No Rank 2012-05-07 22:58:48
5258706 f11283.cn 0 No Rank 2012-05-07 22:58:49
5258707 f2064320.uuu.to 0 379127 2012-05-07 22:58:50
5258708 fabbricantibanchibar.it 0 No Rank 2012-05-07 22:58:50
5258709 f29413.cn 0 No Rank 2012-05-07 22:58:51
5258710 faberge36.ru 0 No Rank 2012-05-07 22:58:51
5258711 fabio-sz.cn 0 No Rank 2012-05-07 22:58:53
5258712 fabrelac.be 0 No Rank 2012-05-07 22:58:53
5258713 face-design.eu 0 No Rank 2012-05-07 22:58:53
5258714 faberlic-v-spb.ru 0 4675209 2012-05-07 22:58:53
5258715 f4619.cn 0 No Rank 2012-05-07 22:58:55
5258716 facebookprogram.net 0 No Rank 2012-05-07 22:58:55
5258717 facepad.tk 0 4134047 2012-05-07 22:58:56
5258718 facetoface.org.ua 0 No Rank 2012-05-07 22:58:58
5258719 fahrradtankstelle.org 0 No Rank 2012-05-07 22:58:58
5258720 fahrgemeinsam.at 0 No Rank 2012-05-07 22:58:59
5258721 fainas.ru 0 No Rank 2012-05-07 22:58:59
5258722 fairbanks1969.org 0 No Rank 2012-05-07 22:59:00
5258723 fahrschule-spott.de 0 No Rank 2012-05-07 22:59:01
5258724 fairholme.prairiespirit.mb.ca 0 11442356 2012-05-07 22:59:02
5258725 fairhopeveteransmemorial.org 0 No Rank 2012-05-07 22:59:03
5258726 fairfoodbook.org 0 16182172 2012-05-07 22:59:03
5258727 faisalschool.edu.pk 0 No Rank 2012-05-07 22:59:04
5258728 faithinishpeming.org 0 No Rank 2012-05-07 22:59:06
5258729 fairwayhills.net 0 No Rank 2012-05-07 22:59:06
5258730 falcos.com.ve 0 10121983 2012-05-07 22:59:06
5258731 faksimile-digital.at 0 15077111 2012-05-07 22:59:07
5258732 familie-stiegler.at 0 No Rank 2012-05-07 22:59:08
5258733 familyliferesources.ie 0 No Rank 2012-05-07 22:59:11
5258734 fannyallard.ca 0 No Rank 2012-05-07 22:59:13
5258735 fantuzzi.net 0 No Rank 2012-05-07 22:59:14
5258736 fangchanbang.net 0 14783426 2012-05-07 22:59:15
5258737 farmertofarmer.org 0 18897463 2012-05-07 22:59:17
5258738 fantasyland.org.ua 0 No Rank 2012-05-07 22:59:18
5258739 farters.org 0 No Rank 2012-05-07 22:59:18
5258740 farver.jp 0 5116852 2012-05-07 22:59:18
5258741 fashion-deti.ru 0 6485385 2012-05-07 22:59:22
5258742 fashionablethings.ru 0 No Rank 2012-05-07 22:59:22
5258743 fashionfoto.co.za 0 12046276 2012-05-07 22:59:22
5258744 fashionpakistan.org 0 6871430 2012-05-07 22:59:24
5258745 fasonmebel.ru 0 6957704 2012-05-07 22:59:26
5258746 fashionvalet.net 0 343318 2012-05-07 22:59:27
5258747 fat-celebrity.jatekokxl.hu 0 1260789 2012-05-07 22:59:28
5258748 fast-torrent.tv 0 No Rank 2012-05-07 22:59:28
5258749 fashioninindia.co.in 0 No Rank 2012-05-07 22:59:30
5258750 favorite-hotel.ru 0 No Rank 2012-05-07 22:59:31
5258751 fawbush.org 0 27326142 2012-05-07 22:59:31
5258752 faultzone.org 0 No Rank 2012-05-07 22:59:32
5258753 favouritetechno.ru 0 25125215 2012-05-07 22:59:32
5258754 fbas.org 0 No Rank 2012-05-07 22:59:34
5258755 favorit.uz 0 No Rank 2012-05-07 22:59:34
5258756 fbcfalam.org 0 No Rank 2012-05-07 22:59:34
5258757 fayettevillepestcontrol.org 0 No Rank 2012-05-07 22:59:35
5258758 fabricpainting.co.za 0 No Rank 2012-05-07 22:59:38
5258759 fcrowing.org 0 No Rank 2012-05-07 22:59:38
5258760 fabrkam.ru 0 No Rank 2012-05-07 22:59:39
5258761 featherhair-extensions.org 0 9837205 2012-05-07 22:59:41
5258762 feedchat.ru 0 No Rank 2012-05-07 22:59:44
5258763 fedspeak.ru 0 4209340 2012-05-07 22:59:45
5258764 felicidadeunimax.com.br 0 No Rank 2012-05-07 22:59:47
5258765 felicita.kz 0 No Rank 2012-05-07 22:59:48
5258766 felipii.fi 0 No Rank 2012-05-07 22:59:49
5258767 fels.co.za 0 No Rank 2012-05-07 22:59:49
5258768 feetfirsttraining.co.nz 0 No Rank 2012-05-07 22:59:50
5258769 fentonumc.org 0 No Rank 2012-05-07 22:59:52
5258770 femeshop.cl 0 No Rank 2012-05-07 22:59:53
5258771 ferien-auf-usedom.info 0 No Rank 2012-05-07 22:59:54
5258772 feminitate.org 0 2894670 2012-05-07 22:59:54
5258773 ferensservis.cz 0 No Rank 2012-05-07 22:59:54
5258774 fermod.org 0 No Rank 2012-05-07 22:59:55
5258775 feretco-ftu.edu.vn 0 2375355 2012-05-07 22:59:56
5258776 ferme-estay.fr 0 No Rank 2012-05-07 22:59:56
5258777 fernandorising.be 0 No Rank 2012-05-07 22:59:57
5258778 ferovali.ro 0 No Rank 2012-05-07 22:59:58
5258779 ferrolaminas.net 0 No Rank 2012-05-07 23:00:00
5258780 fernmotel.co.nz 0 26109945 2012-05-07 23:00:00
5258781 farca.org 0 No Rank 2012-05-07 23:00:00
5258782 festade15anos.net 0 6773076 2012-05-07 23:00:01
5258783 ferrybank.ie 0 No Rank 2012-05-07 23:00:01
5258784 ferromagnetism.net 0 No Rank 2012-05-07 23:00:02
5258785 festiviteten-sarpsborg.no 0 No Rank 2012-05-07 23:00:04
5258786 fever1.net 0 No Rank 2012-05-07 23:00:06
5258787 festlokaler-oslo.no 0 22398948 2012-05-07 23:00:06
5258788 ffchr.ru 0 No Rank 2012-05-07 23:00:06
5258789 festivole.be 0 11421433 2012-05-07 23:00:07
5258790 fevikmisjonskirke.no 0 No Rank 2012-05-07 23:00:07
5258791 festningsverk.no 0 5990881 2012-05-07 23:00:08
5258792 fhffgifts.org 0 No Rank 2012-05-07 23:00:09
5258793 ffkmaschinenbau.at 0 No Rank 2012-05-07 23:00:09
5258794 fghost.ru 0 15975321 2012-05-07 23:00:09
5258795 ffs.com.my 0 No Rank 2012-05-07 23:00:10
5258796 fewocasa.de 0 19549702 2012-05-07 23:00:11
5258797 fifthmedia.biz 0 9112990 2012-05-07 23:00:18
5258798 fil-angola.co.ao 0 3374726 2012-05-07 23:00:24
5258799 femalehairlosstreatment.co 0 No Rank 2012-05-07 23:00:36
5258800 fenixdevotofutbol.com.ar 0 13731419 2012-05-07 23:00:37
5258801 filbis.com.mk 0 No Rank 2012-05-07 23:00:43
5258802 filehd.ru 0 No Rank 2012-05-07 23:00:45
5258803 filestorageboxes.org 0 No Rank 2012-05-07 23:00:57
5258804 fietsentuincentrum.be 0 No Rank 2012-05-07 23:00:58
5258805 fibromiyalji.net 0 27651181 2012-05-07 23:01:00
5258806 filewap.in 0 12661694 2012-05-07 23:01:07
5258807 filmarievenimentehd.ro 0 27135475 2012-05-07 23:01:37
5258808 filmsbase.ru 0 No Rank 2012-05-07 23:01:52
5258809 filme30.do.am 0 27207354 2012-05-07 23:01:53
5258810 filmshort.ru 0 No Rank 2012-05-07 23:02:05
5258811 filthylies.net 0 No Rank 2012-05-07 23:02:16
5258812 filmtv.ir 0 No Rank 2012-05-07 23:02:16
5258813 fims.edu.pk 0 4707693 2012-05-07 23:02:17
5258814 filvis.net 0 13736512 2012-05-07 23:02:18
5258815 financearticledirectory.org 0 1412273 2012-05-07 23:02:19
5258816 financearticle.net 0 No Rank 2012-05-07 23:02:20
5258817 financialgrowth.org 0 No Rank 2012-05-07 23:02:20
5258818 finalfantasyxiii.ru 0 8127253 2012-05-07 23:02:21
5258819 finanseibiznes.eu 0 No Rank 2012-05-07 23:02:22
5258820 fincadesantiago.com.ar 0 No Rank 2012-05-07 23:02:22
5258821 findlonelywomen.eu 0 No Rank 2012-05-07 23:02:23
5258822 findafoodpantry.org 0 7918262 2012-05-07 23:02:24
5258823 fineblogs.net 0 2730328 2012-05-07 23:02:25
5258824 finecar.info 0 No Rank 2012-05-07 23:02:25
5258825 fineartclasses.ca 0 No Rank 2012-05-07 23:02:26
5258826 filtriperacqua.info 0 No Rank 2012-05-07 23:02:26
5258827 finelight.ru 0 No Rank 2012-05-07 23:02:28
5258828 findcheaper.info 0 No Rank 2012-05-07 23:02:29
5258829 fiparc.com.ar 0 No Rank 2012-05-07 23:02:31
5258830 fingorealty.ru 0 No Rank 2012-05-07 23:02:32
5258831 firebaskets.org 0 No Rank 2012-05-07 23:02:33
5258832 firetecnia.es 0 25691745 2012-05-07 23:02:34
5258833 fireclean.be 0 6347773 2012-05-07 23:02:37
5258834 firm.co.il 0 25867983 2012-05-07 23:02:37
5258835 firesafety.vn 0 15780352 2012-05-07 23:02:38
5258836 finet.vn 0 26640648 2012-05-07 23:02:38
5258837 firstmoravianeaston.org 0 No Rank 2012-05-07 23:02:40
5258838 firstimpressionsbeauty.co.nz 0 No Rank 2012-05-07 23:02:40
5258839 first-dance.net 0 No Rank 2012-05-07 23:02:40
5258840 fishbonecharters.net 0 13492716 2012-05-07 23:02:43
5258841 fischer-dachbau.at 0 No Rank 2012-05-07 23:02:44
5258842 fish.cv.ua 0 15040722 2012-05-07 23:02:45
5258843 fisher.familyheritage.ca 0 7426758 2012-05-07 23:02:45
5258844 fisioterapia-roma.it 0 No Rank 2012-05-07 23:02:53
5258845 fishykissknits.info 0 No Rank 2012-05-07 23:02:58
5258846 fitness-primasport.cz 0 No Rank 2012-05-07 23:03:03
5258847 fitness.krasivaya.com.ua 0 468732 2012-05-07 23:03:03
5258848 fitnessequipmentforsale.co.za 0 No Rank 2012-05-07 23:03:06
5258849 fineconsign.net 0 No Rank 2012-05-07 23:03:13
5258850 flatratefinance.com.888hotmoneynow.com 0 No Rank 2012-05-07 23:03:19
5258851 fitundmobil.at 0 No Rank 2012-05-07 23:03:21
5258852 fitvision.net 0 No Rank 2012-05-07 23:03:23
5258853 firstbaptisteatonton.org 0 No Rank 2012-05-07 23:03:24
5258854 fivej.co.il 0 No Rank 2012-05-07 23:03:27
5258855 fisherpricejumperoo.net 0 No Rank 2012-05-07 23:03:30
5258856 fjelletil.no 0 No Rank 2012-05-07 23:03:31
5258857 fjrijders.net 0 No Rank 2012-05-07 23:03:31
5258858 fivas.org 0 3459337 2012-05-07 23:03:32
5258859 flagency.ru 0 No Rank 2012-05-07 23:03:32
5258860 flagmatoxic.tk 0 4067590 2012-05-07 23:03:33
5258861 flamencopolis.ru 0 No Rank 2012-05-07 23:03:35
5258862 flaig-hommel.ru 0 No Rank 2012-05-07 23:03:35
5258863 flaquershipservices.net 0 No Rank 2012-05-07 23:03:35
5258864 flamingkiwi.co.nz 0 16077931 2012-05-07 23:03:37
5258865 flashlightdvr.net 0 No Rank 2012-05-07 23:03:37
5258866 fit-p.biz 0 No Rank 2012-05-07 23:03:38
5258867 flano.ru 0 No Rank 2012-05-07 23:03:38
5258868 flat-inc.jp 0 No Rank 2012-05-07 23:03:39
5258869 flasgames.it 0 12396313 2012-05-07 23:03:40
5258870 flatphone-ag.de 0 No Rank 2012-05-07 23:03:41
5258871 flawlessnz.co.nz 0 No Rank 2012-05-07 23:03:41
5258872 flaviadodi.eu 0 No Rank 2012-05-07 23:03:42
5258873 flevocenterautos.nl 0 No Rank 2012-05-07 23:03:44
5258874 flightstopatna.in 0 No Rank 2012-05-07 23:03:45
5258875 flintstoneads.info 0 16138613 2012-05-07 23:03:46
5258876 fliesen-outlet-erfurt.de 0 5679678 2012-05-07 23:03:46
5258877 fleetcorner.be 0 No Rank 2012-05-07 23:03:46
5258878 floorboardslamps.net 0 No Rank 2012-05-07 23:03:49
5258879 fliser.org 0 No Rank 2012-05-07 23:03:50
5258880 floralscapes.biz 0 No Rank 2012-05-07 23:03:51
5258881 fitnessequipmentsales.org 0 No Rank 2012-05-07 23:03:52
5258882 flightscheapflights.org 0 15849637 2012-05-07 23:03:52
5258883 florenceforfun.it 0 No Rank 2012-05-07 23:03:53
5258884 flophouse.ru 0 No Rank 2012-05-07 23:03:54
5258885 flowerbulbs.betterdealsdaily.co.za 0 1248179 2012-05-07 23:03:54
5258886 florikolla.ru 0 No Rank 2012-05-07 23:03:54
5258887 flytry.info 0 No Rank 2012-05-07 23:04:00
5258888 fitnesstrainer.co.nz 0 No Rank 2012-05-07 23:04:01
5258889 fmkj.net 0 No Rank 2012-05-07 23:04:01
5258890 flymed.cn 0 No Rank 2012-05-07 23:04:02
5258891 flyhighaviation.in 0 6070396 2012-05-07 23:04:02
5258892 fmpopwarner.org 0 No Rank 2012-05-07 23:04:03
5258893 fnvi.website.tc 0 783214 2012-05-07 23:04:03
5258894 fms-mos.ru 0 22496546 2012-05-07 23:04:03
5258895 focusdriving.co.za 0 No Rank 2012-05-07 23:04:04
5258896 focusinteriors.fi 0 No Rank 2012-05-07 23:04:06
5258897 foilhead.net 0 No Rank 2012-05-07 23:04:08
5258898 foldingglassdoors.org 0 No Rank 2012-05-07 23:04:11
5258899 folge.no 0 No Rank 2012-05-07 23:04:13
5258900 fokaha.ma 0 2547170 2012-05-07 23:04:13
5258901 fonko.com.mk 0 26502200 2012-05-07 23:04:15
5258902 foodidea.com.ec 0 16815318 2012-05-07 23:04:15
5258903 fonwap.in 0 No Rank 2012-05-07 23:04:15
5258904 fastcashpickup.com.hotloanasap.com 0 No Rank 2012-05-07 23:04:17
5258905 foodforliving.ie 0 9934690 2012-05-07 23:04:17
5258906 foodpackagingboxes.net 0 24303563 2012-05-07 23:04:19
5258907 forbesautomation.co.in 0 No Rank 2012-05-07 23:04:21
5258908 forensicservices.ca 0 11336044 2012-05-07 23:04:24
5258909 foreland.ru 0 2857112 2012-05-07 23:04:25
5258910 forensicsstudy.info 0 No Rank 2012-05-07 23:04:27
5258911 folkndl.bsu.by 0 109285 2012-05-07 23:04:28
5258912 foreverphoto.net 0 13161409 2012-05-07 23:04:28
5258913 forest-hotel.com.ua 0 No Rank 2012-05-07 23:04:28
5258914 forester-ltd.ru 0 No Rank 2012-05-07 23:04:31
5258915 forexkereskedes.info 0 7023677 2012-05-07 23:04:31
5258916 formation-estheticiennes.ch 0 No Rank 2012-05-07 23:04:34
5258917 forheavenscake.co.nz 0 21546636 2012-05-07 23:04:36
5258918 formulesport.ch 0 No Rank 2012-05-07 23:04:37
5258919 foro.mundomatematico.com.ar 0 No Rank 2012-05-07 23:04:38
5258920 foros-de-futbol.com.ar 0 No Rank 2012-05-07 23:04:39
5258921 formulaganacashopiniones.net 0 No Rank 2012-05-07 23:04:40
5258922 fort-noks.com.ua 0 22174548 2012-05-07 23:04:41
5258923 fortcollinsremodeling.net 0 No Rank 2012-05-07 23:04:43
5258924 fortunecup.net 0 No Rank 2012-05-07 23:04:46
5258925 forum.auto.com.pl 0 48171 2012-05-07 23:04:51
5258926 fotothek-mai.de 0 17422075 2012-05-07 23:05:03
5258927 force2recruit.net 0 No Rank 2012-05-07 23:05:07
5258928 forum.l2interlude.ge 0 No Rank 2012-05-07 23:05:13
5258929 forum.oqayiq.uz 0 625801 2012-05-07 23:05:17
5258930 forevernet.lv 0 No Rank 2012-05-07 23:05:17
5258931 forum.seopanel.in 0 20742 2012-05-07 23:05:19
5258932 forumoneducation.org 0 12691625 2012-05-07 23:05:21
5258933 forumlg.ru 0 No Rank 2012-05-07 23:05:22
5258934 forms.nzcextras.co.nz 0 No Rank 2012-05-07 23:05:22
5258935 fortarmstrongwireless.org 0 22127663 2012-05-07 23:05:27
5258936 forwardgroup.com.ua 0 No Rank 2012-05-07 23:05:29
5258937 fortrade.com.ua 0 14012044 2012-05-07 23:05:30
5258938 foryota.su 0 11625350 2012-05-07 23:05:31
5258939 foster-trp.jp 0 No Rank 2012-05-07 23:05:32
5258940 forum-empore.de 0 No Rank 2012-05-07 23:05:35
5258941 fotobutik.ru 0 13868753 2012-05-07 23:05:44
5258942 fotodao.com.ua 0 No Rank 2012-05-07 23:05:47
5258943 forum.gorodvitebsk.by 0 2763352 2012-05-07 23:05:48
5258944 fotofeber.no 0 No Rank 2012-05-07 23:05:50
5258945 fotografie.jpostl.at 0 No Rank 2012-05-07 23:05:52
5258946 fotografiehilairesmits.be 0 No Rank 2012-05-07 23:05:53
5258947 fotokopikayseri.org 0 No Rank 2012-05-07 23:05:56
5258948 fotografosargentina.com.ar 0 No Rank 2012-05-07 23:05:56
5258949 fotomakeup.com.ua 0 26451575 2012-05-07 23:05:59
5258950 fotomarcello.net 0 No Rank 2012-05-07 23:05:59
5258951 forum.matizclub.ro 0 6148545 2012-05-07 23:06:00
5258952 fotoon.nl 0 11695170 2012-05-07 23:06:04
5258953 fotorele.ru 0 7372294 2012-05-07 23:06:05
5258954 forumracunari.info 0 No Rank 2012-05-07 23:06:06
5258955 fotostudija.eu 0 19911021 2012-05-07 23:06:12
5258956 forumterzomillennio.it 0 No Rank 2012-05-07 23:06:12
5258957 fourdfreight.co.nz 0 No Rank 2012-05-07 23:06:20
5258958 foto-kutuzov.ru 0 No Rank 2012-05-07 23:06:21
5258959 fountainlodgemotel.co.nz 0 No Rank 2012-05-07 23:06:24
5258960 foxbridge.org 0 No Rank 2012-05-07 23:06:27
5258961 foxconn.tv 0 No Rank 2012-05-07 23:06:28
5258962 foxscrossing.net 0 No Rank 2012-05-07 23:06:34
5258963 foxquestsystems.net 0 No Rank 2012-05-07 23:06:34
5258964 foxvalleyadventistchurch.org 0 No Rank 2012-05-07 23:06:36
5258965 fpcallentown.org 0 6757791 2012-05-07 23:06:36
5258966 fractalgames.com.br 0 No Rank 2012-05-07 23:06:41
5258967 frabo-srl.it 0 No Rank 2012-05-07 23:06:41
5258968 frachetti.it 0 No Rank 2012-05-07 23:06:42
5258969 fragrant-olive.net 0 No Rank 2012-05-07 23:06:44
5258970 fraipe.lv 0 25914848 2012-05-07 23:06:45
5258971 francescalombardo.net 0 13037617 2012-05-07 23:06:45
5258972 franca.it 0 27562589 2012-05-07 23:06:47
5258973 frankblackfrancis.net 0 No Rank 2012-05-07 23:06:48
5258974 francorocca.it 0 No Rank 2012-05-07 23:06:50
5258975 fotoroomstudio.ru 0 No Rank 2012-05-07 23:06:51
5258976 franz-till.at 0 No Rank 2012-05-07 23:06:51
5258977 frankofonie.cz 0 No Rank 2012-05-07 23:06:52
5258978 frcgiving.org 0 No Rank 2012-05-07 23:06:53
5258979 frant.net 0 14640884 2012-05-07 23:06:53
5258980 frckelmscott.org 0 No Rank 2012-05-07 23:06:53
5258981 frd.org.pk 0 19149288 2012-05-07 23:06:59
5258982 free-money-grants.info 0 No Rank 2012-05-07 23:07:00
5258983 free-old-games.ru 0 3894513 2012-05-07 23:07:01
5258984 free-styledesign.net 0 15147890 2012-05-07 23:07:01
5258985 freebaywifi.net 0 10575489 2012-05-07 23:07:02
5258986 freedist.ca 0 No Rank 2012-05-07 23:07:04
5258987 freedomhouse4him.org 0 No Rank 2012-05-07 23:07:05
5258988 freebsdnews.net 0 1508114 2012-05-07 23:07:06
5258989 freebingosite.org 0 4802412 2012-05-07 23:07:06
5258990 freedownloadmp3.net 0 58979 2012-05-07 23:07:06
5258991 freefilez.org 0 7625722 2012-05-07 23:07:07
5258992 freesports4you.tk 0 No Rank 2012-05-07 23:07:09
5258993 freeroulettesystems.net 0 No Rank 2012-05-07 23:07:10
5258994 freestyle.selexionclix.be 0 5203556 2012-05-07 23:07:11
5258995 freestylesportievakteam.be 0 No Rank 2012-05-07 23:07:12
5258996 fastandeasypaydayloan.com.hotmoney2u.com 0 No Rank 2012-05-07 23:07:12
5258997 freeworldseobookmark.info 0 112543 2012-05-07 23:07:13
5258998 freevoucher.com.my 0 793718 2012-05-07 23:07:14
5258999 fregingesso.it 0 No Rank 2012-05-07 23:07:17